[[{"header":{"parameterUnit":"m.s-1","parameterCategory":1,"la1":30.2991,"la2":30.254,"lo1":-89.0895,"lo2":-89.0444,"dy":0.0017,"dx":0.0017,"nx":28,"ny":28,"refTime":"2023-07-22T21:00:00:Z","depth":0,"parameterNumber":2,"parameterNumberName":"U-component_of_WINDS"},"data":[0,0,0,0,0,0,0,0,0,0,0,0,0,0,0,0,0,0,0,0,0,0,0,0,0,0,0,0,0,0,0,0,0,0,0,0,0,0,0,0,0,0,0,0,0,0,0,0,0,0,0,0,0,0,0,0,0,0,5.038,5.0381,0,5.0444,5.0445,5.0446,5.0362,5.0359,5.0356,5.0353,5.0418,5.0423,5.0427,0,0,0,0,0,0,0,0,0,0,0,0,0,5.0185,5.0189,5.038,5.0381,5.0382,5.0444,5.0445,5.0446,5.0363,5.0359,5.0355,5.0352,5.0417,5.0422,5.0428,0,0,0,0,0,0,0,0,0,0,0,0,0,5.0262,5.019,5.038,5.0347,5.0345,5.0444,5.0445,5.0446,5.0363,5.0359,5.0354,5.035,5.0415,5.0422,5.0429,5.0562,0,0,5.0449,5.0452,0,0,0,0,0,0,0,0,5.0257,5.0269,5.0351,5.035,5.0348,5.0391,5.04,5.0485,5.0364,5.0356,5.0353,5.0348,5.0413,5.042,5.0442,5.0565,5.0568,5.045,5.0454,5.0457,5.0459,0,0,0,0,0,0,0,5.0252,5.0266,5.0405,5.0353,5.035,5.033,5.0336,5.0416,5.0409,5.0357,5.0351,5.036,5.0411,5.0435,5.0442,5.0569,5.045,5.0456,5.046,5.0463,5.0807,5.0812,0,0,0,0,0,0,5.0251,5.0262,5.0403,5.0407,5.029,5.0337,5.0344,5.0381,5.0408,5.0408,5.0364,5.0356,5.0426,5.0435,5.0444,5.0604,5.0457,5.0464,5.0467,5.0802,5.0808,5.0814,0,0,0,0,0,0,5.0247,5.0264,5.0401,5.0333,5.0349,5.0345,5.0388,5.0385,5.0409,5.0413,5.0412,5.039,5.0422,5.0435,5.0534,5.0605,5.0467,5.0473,5.0796,5.0804,5.0811,5.0923,0,0,0,0,0,0,5.0242,5.0263,5.0314,5.0335,5.0353,5.0489,5.0393,5.039,5.0421,5.0412,5.0437,5.0437,5.042,5.0524,5.0541,5.0612,5.0478,5.079,5.08,5.0809,5.0913,5.0934,5.0951,0,0,0,0,0,5.0235,5.0342,5.0317,5.0334,5.0416,5.0493,5.0504,5.0482,5.0427,5.0478,5.0481,5.0436,5.0595,5.0535,5.0553,5.0627,5.0785,5.0797,5.0808,5.0905,5.093,5.0951,0,0,0,0,0,0,5.0328,5.0344,5.0316,5.0433,5.0463,5.0479,5.0543,5.0509,5.0554,5.0543,5.0513,5.052,5.0626,5.0636,5.057,5.0759,5.0681,5.0696,5.0748,5.0772,5.0791,5.0786,5.0484,0,0,0,0,0,5.0363,5.0425,5.0435,5.0537,5.0554,5.0546,5.0579,5.056,5.0589,5.0601,5.0611,5.0641,5.0697,5.0735,5.0787,5.0914,5.0919,5.0974,5.0993,5.1009,5.1023,5.1093,5.1118,5.0851,5.0851,5.0851,0,0,5.0434,5.0451,5.0491,5.0557,5.0577,5.0643,5.0557,5.0629,5.0677,5.0612,5.0706,5.0715,5.0747,5.0861,5.0912,5.0873,5.1098,5.1023,5.1036,5.1041,5.1107,5.1132,5.1155,5.0859,5.0857,5.0856,0,0,5.0598,5.0616,5.0704,5.0727,5.076,5.0754,5.0776,5.0798,5.0802,5.0896,5.0849,5.0906,5.1003,5.1029,5.1054,5.123,5.1191,5.1248,5.1347,5.1416,5.1437,5.1455,5.1519,5.1542,5.1262,5.1262,5.1262,0,5.0683,5.0779,5.0754,5.083,5.0861,5.0806,5.0895,5.0918,5.0967,5.0989,5.0945,5.1068,5.1085,5.1205,5.1249,5.1271,5.1295,5.1245,5.1436,5.1454,5.1471,5.1532,5.1556,5.1269,5.1268,5.1267,5.1266,0,5.0882,5.095,5.1017,5.1066,5.1105,5.1187,5.1175,5.1217,5.1195,5.1194,5.1293,5.1312,5.1368,5.1394,5.1373,5.1513,5.1488,5.144,5.1361,5.1504,5.156,5.1583,5.1278,5.1276,5.1274,5.1272,0,0,5.1106,5.1141,5.1167,5.1189,5.1222,5.1274,5.1355,5.141,5.1447,5.1483,5.155,5.1635,5.1592,5.1621,5.1602,5.1662,5.1803,5.1608,5.1608,5.1644,5.1959,5.1995,5.2022,5.1777,5.1781,5.1784,5.1957,0,5.1271,5.1411,5.1391,5.1526,5.1589,5.1538,5.1609,5.1637,5.1639,5.1693,5.1695,5.1757,5.1694,5.1712,5.1769,5.1773,5.1865,5.1761,5.184,5.1843,5.1834,5.2052,5.209,5.2251,5.1979,5.1982,5.1985,0,5.1481,5.1526,5.1668,5.1693,5.1718,5.1782,5.1832,5.1884,5.1916,5.1913,5.1947,5.1918,5.2,5.1919,5.2032,5.1961,5.1993,5.2,5.2006,5.2013,5.1923,5.2066,5.2302,5.2327,5.2019,5.2017,5.2014,0,5.1632,5.1727,5.1825,5.1845,5.1877,5.1923,5.1938,5.1965,5.2,5.2044,5.2067,5.212,5.2149,5.219,5.2177,5.2119,5.2293,5.2211,5.2294,5.2294,5.2333,5.233,5.2579,5.2352,5.2352,5.2351,5.2351,0,5.1819,5.1908,5.1893,5.1953,5.2052,5.2029,5.2127,5.2136,5.2161,5.2222,5.2181,5.2239,5.2217,5.2275,5.2264,5.236,5.2373,5.2374,5.237,5.2378,5.2378,5.2399,5.2387,5.2357,5.2356,5.2355,5.2354,0,5.2004,5.1998,5.2101,5.2123,5.213,5.2202,5.2221,5.2278,5.2277,5.2355,5.2372,5.2371,5.2437,5.2427,5.25,5.2493,5.2613,5.2595,5.2602,5.2599,5.2682,5.2675,5.2952,5.2988,5.2738,5.274,5.2742,0,5.2124,5.2191,5.2221,5.226,5.2278,5.2341,5.2377,5.2357,5.2397,5.2439,5.2491,5.2553,5.2601,5.2709,5.2715,5.277,5.2754,5.2848,5.2762,5.2769,5.2757,5.2753,5.2761,5.2865,5.2868,5.287,5.2872,0,5.2338,5.2332,5.2386,5.244,5.2485,5.2526,5.2563,5.2596,5.258,5.2627,5.2694,5.2732,5.2807,5.2869,5.2922,5.2937,5.2903,5.2899,5.2921,5.293,5.2932,5.2933,5.2649,5.2892,5.289,5.2889,5.2888,5.2887,5.2495,5.2553,5.2584,5.2646,5.2672,5.2708,5.2763,5.277,5.2826,5.2885,5.287,5.2947,5.2978,5.3045,5.3067,5.3126,5.3092,5.3124,5.3132,5.3141,5.3151,5.2922,5.3136,5.3135,5.3134,5.3134,5.3133,0,5.2708,5.2726,5.2783,5.2837,5.2886,5.2849,5.2889,5.2933,5.3,5.3032,5.3082,5.3159,5.322,5.3232,5.329,5.3335,5.3321,5.3351,5.3348,5.3353,5.3178,5.3153,5.3362,5.3362,5.3362,5.3362,5.3362,5.3362,5.2825,5.2922,5.292,5.3031,5.3047,5.3122,5.3148,5.3181,5.3207,5.3296,5.3347,5.3354,5.3378,5.3438,5.3493,5.3494,5.3518,5.3555,5.3551,5.3388,5.3365,5.3343,5.332,5.356,5.3561,5.3721,5.3722,5.3724]},{"header":{"parameterUnit":"m.s-1","parameterCategory":1,"la1":30.2991,"la2":30.254,"lo1":-89.0895,"lo2":-89.0444,"dy":0.0017,"dx":0.0017,"nx":28,"ny":28,"refTime":"2023-07-22T21:00:00:Z","depth":0,"parameterNumber":3,"parameterNumberName":"V-component_of_WINDS"},"data":[0,0,0,0,0,0,0,0,0,0,0,0,0,0,0,0,0,0,0,0,0,0,0,0,0,0,0,0,0,0,0,0,0,0,0,0,0,0,0,0,0,0,0,0,0,0,0,0,0,0,0,0,0,0,0,0,0,0,-1.4423,-1.4423,0,-1.4426,-1.4426,-1.4426,-1.4423,-1.4423,-1.4422,-1.4422,-1.4425,-1.4425,-1.4425,0,0,0,0,0,0,0,0,0,0,0,0,0,-1.4415,-1.4415,-1.4423,-1.4423,-1.4423,-1.4426,-1.4426,-1.4426,-1.4423,-1.4423,-1.4422,-1.4422,-1.4425,-1.4425,-1.4425,0,0,0,0,0,0,0,0,0,0,0,0,0,-1.4418,-1.4415,-1.4423,-1.4422,-1.4422,-1.4426,-1.4426,-1.4426,-1.4423,-1.4423,-1.4422,-1.4422,-1.4425,-1.4425,-1.4425,-1.4431,0,0,-1.4426,-1.4426,0,0,0,0,0,0,0,0,-1.4418,-1.4418,-1.4422,-1.4422,-1.4422,-1.4424,-1.4424,-1.4428,-1.4423,-1.4422,-1.4422,-1.4422,-1.4424,-1.4425,-1.4426,-1.4431,-1.4431,-1.4426,-1.4426,-1.4426,-1.4426,0,0,0,0,0,0,0,-1.4418,-1.4418,-1.4424,-1.4422,-1.4422,-1.4421,-1.4422,-1.4425,-1.4424,-1.4422,-1.4422,-1.4423,-1.4424,-1.4426,-1.4426,-1.4431,-1.4426,-1.4426,-1.4426,-1.4426,-1.4444,-1.4444,0,0,0,0,0,0,-1.4418,-1.4418,-1.4424,-1.4424,-1.4419,-1.4422,-1.4422,-1.4423,-1.4424,-1.4424,-1.4423,-1.4422,-1.4425,-1.4425,-1.4426,-1.4434,-1.4426,-1.4426,-1.4427,-1.4443,-1.4444,-1.4444,0,0,0,0,0,0,-1.4417,-1.4418,-1.4424,-1.4421,-1.4422,-1.4422,-1.4424,-1.4424,-1.4425,-1.4425,-1.4425,-1.4424,-1.4425,-1.4425,-1.443,-1.4434,-1.4427,-1.4427,-1.4443,-1.4444,-1.4444,-1.445,0,0,0,0,0,0,-1.4417,-1.4418,-1.442,-1.4421,-1.4422,-1.4428,-1.4424,-1.4424,-1.4425,-1.4425,-1.4426,-1.4426,-1.4425,-1.443,-1.4431,-1.4434,-1.4427,-1.4443,-1.4443,-1.4444,-1.4449,-1.445,-1.4451,0,0,0,0,0,-1.4417,-1.442,-1.442,-1.4421,-1.4424,-1.4428,-1.4429,-1.4428,-1.4426,-1.4428,-1.4428,-1.4426,-1.4434,-1.443,-1.4431,-1.4435,-1.4442,-1.4443,-1.4444,-1.4449,-1.445,-1.4451,0,0,0,0,0,0,-1.4418,-1.442,-1.442,-1.4424,-1.4426,-1.4427,-1.443,-1.4429,-1.4431,-1.4431,-1.443,-1.443,-1.4435,-1.4436,-1.4432,-1.4442,-1.4438,-1.4439,-1.4441,-1.4443,-1.4444,-1.4443,-1.4427,0,0,0,0,0,-1.4419,-1.4422,-1.4424,-1.4428,-1.4429,-1.4429,-1.4431,-1.4431,-1.4432,-1.4433,-1.4434,-1.4436,-1.4439,-1.4441,-1.4444,-1.445,-1.4451,-1.4453,-1.4454,-1.4455,-1.4456,-1.4461,-1.4463,-1.4446,-1.4446,-1.4446,0,0,-1.4421,-1.4423,-1.4424,-1.4428,-1.4429,-1.4433,-1.443,-1.4433,-1.4436,-1.4433,-1.4438,-1.4439,-1.4442,-1.4448,-1.445,-1.4448,-1.4461,-1.4456,-1.4457,-1.4457,-1.4462,-1.4463,-1.4465,-1.4447,-1.4447,-1.4447,0,0,-1.4426,-1.4427,-1.4431,-1.4433,-1.4436,-1.4437,-1.4438,-1.4441,-1.4441,-1.4447,-1.4445,-1.4449,-1.4454,-1.4456,-1.4458,-1.4468,-1.4466,-1.4469,-1.4474,-1.4479,-1.448,-1.4482,-1.4486,-1.4488,-1.4469,-1.4469,-1.4469,0,-1.4427,-1.4433,-1.4433,-1.4438,-1.444,-1.4439,-1.4444,-1.4446,-1.4449,-1.4451,-1.4449,-1.4457,-1.4458,-1.4466,-1.4469,-1.447,-1.4472,-1.4468,-1.448,-1.4481,-1.4483,-1.4487,-1.4489,-1.447,-1.447,-1.447,-1.447,0,-1.4435,-1.4439,-1.4442,-1.4447,-1.445,-1.4454,-1.4456,-1.4459,-1.4459,-1.4461,-1.4467,-1.4469,-1.4474,-1.4476,-1.4475,-1.4484,-1.4483,-1.448,-1.4476,-1.4484,-1.4489,-1.449,-1.447,-1.447,-1.447,-1.447,0,0,-1.4439,-1.4446,-1.4447,-1.445,-1.4455,-1.4458,-1.4464,-1.4469,-1.4472,-1.4475,-1.448,-1.4486,-1.4485,-1.4487,-1.4488,-1.4492,-1.4502,-1.449,-1.449,-1.4493,-1.4514,-1.4515,-1.4517,-1.4501,-1.4501,-1.4502,-1.4514,0,-1.4445,-1.4454,-1.4456,-1.4465,-1.4469,-1.447,-1.4475,-1.4479,-1.4481,-1.4486,-1.4488,-1.4493,-1.4491,-1.4492,-1.4497,-1.4499,-1.4506,-1.4499,-1.4506,-1.4507,-1.4506,-1.4519,-1.4521,-1.4532,-1.4515,-1.4516,-1.4516,0,-1.4452,-1.4457,-1.4467,-1.4473,-1.4475,-1.4479,-1.4486,-1.449,-1.4495,-1.4497,-1.4501,-1.4501,-1.4508,-1.4504,-1.4514,-1.4509,-1.4513,-1.4515,-1.4516,-1.4516,-1.4512,-1.4521,-1.4535,-1.4537,-1.4518,-1.4518,-1.4518,0,-1.4456,-1.4464,-1.4472,-1.4474,-1.4482,-1.4485,-1.4488,-1.4493,-1.4497,-1.4503,-1.4506,-1.4512,-1.4515,-1.452,-1.4523,-1.452,-1.4534,-1.4529,-1.4536,-1.4536,-1.4538,-1.4538,-1.4554,-1.454,-1.454,-1.454,-1.454,0,-1.4462,-1.4468,-1.4474,-1.4478,-1.4485,-1.4488,-1.4496,-1.4499,-1.4504,-1.451,-1.4511,-1.4516,-1.4519,-1.4526,-1.4528,-1.4537,-1.4538,-1.454,-1.4541,-1.454,-1.454,-1.4543,-1.4542,-1.454,-1.454,-1.454,-1.454,0,-1.4466,-1.447,-1.4478,-1.4485,-1.4488,-1.4493,-1.4499,-1.4504,-1.4508,-1.4515,-1.4517,-1.4522,-1.453,-1.4534,-1.4543,-1.4545,-1.4555,-1.4555,-1.4554,-1.4554,-1.4561,-1.456,-1.4579,-1.4582,-1.4566,-1.4566,-1.4566,0,-1.4469,-1.4474,-1.4483,-1.4487,-1.4491,-1.4498,-1.4502,-1.4506,-1.4511,-1.4519,-1.4524,-1.4532,-1.4539,-1.4551,-1.4556,-1.4564,-1.4564,-1.457,-1.4565,-1.4566,-1.4566,-1.4565,-1.4567,-1.4571,-1.4571,-1.4571,-1.4571,0,-1.4476,-1.4479,-1.4485,-1.4493,-1.4499,-1.4505,-1.4512,-1.4515,-1.4521,-1.4526,-1.4535,-1.454,-1.4551,-1.456,-1.4569,-1.4573,-1.4573,-1.4573,-1.4575,-1.4575,-1.4574,-1.4576,-1.4557,-1.4573,-1.4572,-1.4572,-1.4572,-1.4572,-1.448,-1.4486,-1.4493,-1.4501,-1.4507,-1.4514,-1.4519,-1.4524,-1.4532,-1.4541,-1.4544,-1.4553,-1.4561,-1.4573,-1.4578,-1.4586,-1.4585,-1.4587,-1.4588,-1.4589,-1.459,-1.4573,-1.4588,-1.4588,-1.4588,-1.4587,-1.4587,0,-1.4488,-1.4493,-1.4501,-1.451,-1.4517,-1.4519,-1.4527,-1.4532,-1.4541,-1.4548,-1.4556,-1.4567,-1.4576,-1.4583,-1.4593,-1.4598,-1.4599,-1.4601,-1.46,-1.4602,-1.459,-1.4587,-1.46,-1.46,-1.46,-1.46,-1.46,-1.46,-1.4492,-1.4502,-1.4506,-1.4519,-1.4525,-1.4534,-1.4539,-1.4546,-1.4552,-1.4565,-1.4573,-1.4578,-1.4586,-1.4597,-1.4606,-1.4608,-1.4611,-1.4613,-1.4615,-1.4604,-1.4602,-1.4601,-1.4599,-1.4614,-1.4614,-1.4627,-1.4627,-1.4627]}]]